START_TIME,STEP,MOV.,M15,t_acc.,M20,t_acc.
1979-03-07 18:00:41.700 ,7,1,0.,24.0,0.,24.0
1979-03-07 18:01:05.700 ,6,1,0.,24.0,0.,24.0
1979-03-07 18:01:29.700 ,5,1,0.,24.0,0.,24.0
1979-03-07 18:01:53.700 ,4,1,0.,24.0,0.,24.0
1979-03-07 18:02:17.700 ,3,1,0.,24.0,0.,24.0
1979-03-07 18:02:41.700 ,2,1,0.,24.0,0.,24.0
1979-03-07 18:03:05.700 ,1,1,0.,24.0,0.,24.0
1979-03-07 18:03:29.700 ,0,1,0.,24.0,0.,24.0
1979-03-07 18:03:53.700 ,0,1,0.,24.0,0.,24.0
1979-03-07 18:04:17.700 ,1,1,0.,24.0,0.,24.0
1979-03-07 18:04:41.700 ,2,1,0.,24.0,0.,24.0
1979-03-07 18:05:05.700 ,3,1,0.,24.0,0.,24.0
1979-03-07 18:05:29.700 ,4,1,0.,24.0,0.,24.0
1979-03-07 18:05:53.700 ,5,1,0.,24.0,0.,24.0
1979-03-07 18:06:17.700 ,6,1,0.,24.0,0.,24.0
1979-03-07 18:06:41.700 ,7,1,0.,24.0,0.,24.0
1979-03-07 18:07:05.700 ,7,1,0.,24.0,0.,24.0
1979-03-07 18:07:29.700 ,6,1,0.,24.0,0.,24.0
1979-03-07 18:07:53.700 ,5,1,0.,24.0,0.,24.0
1979-03-07 18:08:17.700 ,4,1,0.,24.0,0.,24.0
1979-03-07 18:08:41.700 ,3,1,0.,24.0,0.,24.0
1979-03-07 18:09:05.700 ,2,1,0.,24.0,0.,24.0
1979-03-07 18:09:29.700 ,1,1,0.,24.0,0.,24.0
1979-03-07 18:09:53.700 ,0,1,0.,24.0,0.,24.0
1979-03-07 18:10:17.700 ,0,1,0.,24.0,0.,24.0
1979-03-07 18:10:41.700 ,1,1,0.,24.0,0.,24.0
1979-03-07 18:11:05.700 ,2,1,0.,24.0,0.,24.0
1979-03-07 18:11:29.700 ,3,1,0.,24.0,0.,24.0
1979-03-07 18:11:53.700 ,4,1,0.,24.0,0.,24.0
1979-03-07 18:12:17.700 ,5,1,0.,24.0,0.,24.0
1979-03-07 18:12:41.700 ,6,1,0.,24.0,0.,24.0
1979-03-07 18:13:05.700 ,7,1,0.,24.0,0.,24.0
1979-03-07 18:13:29.700 ,7,1,0.,24.0,0.,24.0
1979-03-07 18:13:53.700 ,6,1,0.,24.0,0.,24.0
1979-03-07 18:14:17.700 ,5,1,0.,24.0,0.,24.0
1979-03-07 18:14:41.700 ,4,1,0.,24.0,0.,24.0
1979-03-07 18:15:05.700 ,3,1,0.,24.0,0.,24.0
1979-03-07 18:15:29.700 ,2,1,0.,24.0,0.,24.0
1979-03-07 18:15:53.700 ,1,1,0.,24.0,0.,24.0
1979-03-07 18:16:17.700 ,0,1,0.,24.0,0.,24.0
1979-03-07 18:16:41.700 ,0,1,0.,24.0,0.,24.0
1979-03-07 18:17:05.700 ,1,1,0.,24.0,0.,24.0
1979-03-07 18:17:29.700 ,2,1,0.,24.0,0.,24.0
1979-03-07 18:17:53.700 ,3,1,0.,24.0,0.,24.0
1979-03-07 18:18:17.700 ,4,1,0.,24.0,0.,24.0
1979-03-07 18:18:41.700 ,5,1,0.,24.0,0.,24.0
1979-03-07 18:19:05.700 ,6,1,0.,24.0,0.,24.0
1979-03-07 18:19:29.700 ,7,1,0.,24.0,0.,24.0
1979-03-07 18:19:53.700 ,7,1,0.,24.0,0.,24.0
1979-03-07 18:20:17.700 ,6,1,0.,24.0,0.,24.0
1979-03-07 18:20:41.700 ,5,1,0.,24.0,0.,24.0
1979-03-07 18:21:05.700 ,4,1,0.,24.0,0.,24.0
1979-03-07 18:21:29.700 ,3,1,0.,24.0,0.,24.0
1979-03-07 18:21:53.700 ,2,1,0.,24.0,0.,24.0
1979-03-07 18:22:17.700 ,1,1,0.,24.0,0.,24.0
1979-03-07 18:22:41.700 ,0,1,0.,24.0,0.,24.0
1979-03-07 18:23:05.700 ,0,1,0.,24.0,0.,24.0
1979-03-07 18:23:29.700 ,1,1,0.,24.0,0.,24.0
1979-03-07 18:23:53.700 ,2,1,0.,24.0,0.,24.0
1979-03-07 18:24:17.700 ,3,1,0.,24.0,0.,24.0
1979-03-07 18:24:41.700 ,0,0,,0,,0
1979-03-07 18:25:05.700 ,0,0,0.,24.0,0.,24.0
1979-03-07 18:25:29.700 ,6,1,0.,24.0,0.,24.0
1979-03-07 18:25:53.710 ,7,1,0.,24.0,0.,24.0
1979-03-07 18:26:17.710 ,7,1,0.,24.0,0.,24.0
1979-03-07 18:26:41.710 ,6,1,0.,24.0,0.,24.0
1979-03-07 18:27:05.710 ,5,1,0.,24.0,0.,24.0
1979-03-07 18:27:29.710 ,4,1,0.,24.0,0.,24.0
1979-03-07 18:27:53.710 ,3,1,0.,24.0,0.,24.0
1979-03-07 18:28:17.710 ,2,1,0.,24.0,0.,24.0
1979-03-07 18:28:41.710 ,1,1,0.,24.0,0.,24.0
1979-03-07 18:29:05.710 ,0,1,0.,24.0,0.,24.0
1979-03-07 18:29:29.710 ,0,1,1.,24.0,0.,24.0
1979-03-07 18:29:53.710 ,1,1,0.,24.0,0.,24.0
1979-03-07 18:30:17.710 ,2,1,0.,24.0,0.,24.0
1979-03-07 18:30:41.710 ,3,1,0.,24.0,0.,24.0
1979-03-07 18:31:05.710 ,4,1,0.,24.0,0.,24.0
1979-03-07 18:31:29.710 ,5,1,0.,24.0,0.,24.0
1979-03-07 18:31:53.710 ,6,1,0.,24.0,0.,24.0
1979-03-07 18:32:17.710 ,7,1,0.,24.0,0.,24.0
1979-03-07 18:32:41.710 ,7,1,0.,24.0,0.,24.0
1979-03-07 18:33:05.710 ,6,1,0.,24.0,0.,24.0
1979-03-07 18:33:29.710 ,5,1,1.,24.0,0.,24.0
1979-03-07 18:33:53.710 ,4,1,0.,24.0,0.,24.0
1979-03-07 18:34:17.710 ,3,1,0.,24.0,0.,24.0
1979-03-07 18:34:41.710 ,2,1,0.,24.0,0.,24.0
1979-03-07 18:35:05.710 ,1,1,0.,24.0,0.,24.0
1979-03-07 18:35:29.710 ,0,1,0.,24.0,0.,24.0
1979-03-07 18:35:53.710 ,0,1,0.,24.0,0.,24.0
1979-03-07 18:36:17.710 ,1,1,0.,24.0,0.,24.0
1979-03-07 18:36:41.710 ,2,1,0.,24.0,0.,24.0
1979-03-07 18:37:05.710 ,3,1,0.,24.0,0.,24.0
1979-03-07 18:37:29.710 ,4,1,0.,24.0,0.,24.0
1979-03-07 18:37:53.710 ,5,1,0.,24.0,0.,24.0
1979-03-07 18:38:17.710 ,6,1,0.,24.0,0.,24.0
1979-03-07 18:38:41.710 ,7,1,0.,24.0,0.,24.0
1979-03-07 18:39:05.710 ,7,1,0.,24.0,0.,24.0
1979-03-07 18:39:29.710 ,6,1,0.,24.0,0.,24.0
1979-03-07 18:39:53.710 ,5,1,0.,24.0,0.,24.0
1979-03-07 18:40:17.710 ,4,1,0.,24.0,0.,24.0
1979-03-07 18:40:41.710 ,3,1,0.,24.0,0.,24.0
1979-03-07 18:41:05.710 ,2,1,0.,24.0,0.,24.0
1979-03-07 18:41:29.710 ,1,1,0.,24.0,0.,24.0
1979-03-07 18:41:53.710 ,0,1,0.,24.0,0.,24.0
1979-03-07 18:42:17.710 ,0,1,0.,24.0,0.,24.0
1979-03-07 18:42:41.710 ,1,1,0.,24.0,0.,24.0
1979-03-07 18:43:05.710 ,2,1,0.,24.0,0.,24.0
1979-03-07 18:43:29.710 ,3,1,0.,24.0,0.,24.0
1979-03-07 18:43:53.710 ,4,1,0.,24.0,0.,24.0
1979-03-07 18:44:17.710 ,5,1,0.,24.0,0.,24.0
1979-03-07 18:44:41.710 ,6,1,0.,24.0,0.,24.0
1979-03-07 18:45:05.710 ,7,1,0.,24.0,0.,24.0
1979-03-07 18:45:29.710 ,7,1,0.,24.0,0.,24.0
1979-03-07 18:45:53.710 ,0,0,,0,,0
1979-03-07 18:46:17.710 ,7,1,0.,24.0,0.,24.0
1979-03-07 18:46:41.710 ,4,1,0.,24.0,0.,24.0
1979-03-07 18:47:05.710 ,3,1,0.,24.0,0.,24.0
1979-03-07 18:47:29.710 ,2,1,0.,24.0,0.,24.0
1979-03-07 18:47:53.710 ,1,1,0.,24.0,0.,24.0
1979-03-07 18:48:17.710 ,0,1,0.,24.0,0.,24.0
1979-03-07 18:48:41.710 ,0,1,0.,24.0,0.,24.0
1979-03-07 18:49:05.710 ,1,1,0.,24.0,0.,24.0
1979-03-07 18:49:29.710 ,2,1,0.,24.0,0.,24.0
1979-03-07 18:49:53.710 ,3,1,0.,24.0,0.,24.0
1979-03-07 18:50:17.710 ,4,1,0.,24.0,0.,24.0
1979-03-07 18:50:41.710 ,5,1,0.,24.0,0.,24.0
1979-03-07 18:51:05.710 ,6,1,0.,24.0,0.,24.0
1979-03-07 18:51:29.710 ,7,1,0.,24.0,0.,24.0
1979-03-07 18:51:53.710 ,7,1,0.,24.0,0.,24.0
1979-03-07 18:52:17.710 ,6,1,0.,24.0,0.,24.0
1979-03-07 18:52:41.710 ,5,1,0.,24.0,0.,24.0
1979-03-07 18:53:05.710 ,4,1,0.,24.0,0.,24.0
1979-03-07 18:53:29.710 ,3,1,0.,24.0,0.,24.0
1979-03-07 18:53:53.710 ,2,1,0.,24.0,0.,24.0
1979-03-07 18:54:17.710 ,1,1,0.,24.0,0.,24.0
1979-03-07 18:54:41.710 ,0,1,0.,24.0,0.,24.0
1979-03-07 18:55:05.710 ,0,1,0.,24.0,0.,24.0
1979-03-07 18:55:29.710 ,1,1,0.,24.0,0.,24.0
1979-03-07 18:55:53.710 ,2,1,0.,24.0,0.,24.0
1979-03-07 18:56:17.710 ,3,1,0.,24.0,0.,24.0
1979-03-07 18:56:41.710 ,4,1,0.,24.0,0.,24.0
1979-03-07 18:57:05.710 ,5,1,0.,24.0,0.,24.0
1979-03-07 18:57:29.710 ,6,1,0.,24.0,0.,24.0
1979-03-07 18:57:53.710 ,7,1,0.,24.0,0.,24.0
1979-03-07 18:58:17.710 ,7,1,0.,24.0,0.,24.0
1979-03-07 18:58:41.710 ,6,1,0.,24.0,0.,24.0
1979-03-07 18:59:05.710 ,5,1,0.,24.0,0.,24.0
1979-03-07 18:59:29.710 ,4,1,0.,24.0,0.,24.0
1979-03-07 18:59:53.710 ,3,1,0.,24.0,0.,24.0
1979-03-07 19:00:17.710 ,2,1,0.,24.0,0.,24.0
1979-03-07 19:00:41.710 ,1,1,0.,24.0,0.,24.0
1979-03-07 19:01:05.710 ,0,1,0.,24.0,0.,24.0
1979-03-07 19:01:29.710 ,0,1,0.,24.0,0.,24.0
1979-03-07 19:01:53.710 ,1,1,0.,24.0,0.,24.0
1979-03-07 19:02:17.710 ,2,1,0.,24.0,0.,24.0
1979-03-07 19:02:41.710 ,3,1,0.,24.0,0.,24.0
1979-03-07 19:03:05.710 ,4,1,0.,24.0,0.,24.0
1979-03-07 19:03:29.710 ,5,1,0.,24.0,0.,24.0
1979-03-07 19:03:53.710 ,6,1,0.,24.0,0.,24.0
1979-03-07 19:04:17.710 ,7,1,0.,24.0,0.,24.0
1979-03-07 19:04:41.710 ,7,1,0.,24.0,0.,24.0
1979-03-07 19:05:05.710 ,6,1,0.,24.0,0.,24.0
1979-03-07 19:05:29.710 ,0,0,0.,24.0,0.,24.0
1979-03-07 19:05:55.510 ,0,0,0.,24.0,0.,24.0
1979-03-07 19:06:17.710 ,3,1,0.,24.0,0.,24.0
1979-03-07 19:06:41.710 ,2,1,0.,24.0,0.,24.0
1979-03-07 19:07:05.710 ,1,1,0.,24.0,0.,24.0
1979-03-07 19:07:29.710 ,0,1,0.,24.0,0.,24.0
1979-03-07 19:07:53.710 ,0,1,0.,24.0,0.,24.0
1979-03-07 19:08:17.710 ,1,1,0.,24.0,0.,24.0
1979-03-07 19:08:41.710 ,2,1,0.,24.0,0.,24.0
1979-03-07 19:09:05.710 ,3,1,0.,24.0,0.,24.0
1979-03-07 19:09:29.710 ,4,1,0.,24.0,0.,24.0
1979-03-07 19:09:53.710 ,5,1,0.,24.0,0.,24.0
1979-03-07 19:10:17.710 ,6,1,0.,24.0,0.,24.0
1979-03-07 19:10:41.710 ,7,1,0.,24.0,0.,24.0
1979-03-07 19:11:05.710 ,7,1,0.,24.0,0.,24.0
1979-03-07 19:11:29.710 ,6,1,0.,24.0,0.,24.0
1979-03-07 19:11:53.710 ,5,1,0.,24.0,0.,24.0
1979-03-07 19:12:17.710 ,4,1,0.,24.0,0.,24.0
1979-03-07 19:12:41.710 ,3,1,0.,24.0,0.,24.0
1979-03-07 19:13:05.710 ,2,1,0.,24.0,0.,24.0
1979-03-07 19:13:29.710 ,1,1,0.,24.0,0.,24.0
1979-03-07 19:13:53.710 ,0,1,0.,24.0,0.,24.0
1979-03-07 19:14:17.710 ,0,1,0.,24.0,0.,24.0
1979-03-07 19:14:41.710 ,0,0,,0,,0
1979-03-07 19:15:05.710 ,0,1,0.,24.0,0.,24.0
1979-03-07 19:15:29.710 ,3,1,0.,24.0,0.,24.0
1979-03-07 19:15:53.710 ,4,1,0.,24.0,0.,24.0
1979-03-07 19:16:17.710 ,5,1,0.,24.0,0.,24.0
1979-03-07 19:16:41.710 ,6,1,0.,24.0,0.,24.0
1979-03-07 19:17:05.710 ,7,1,0.,24.0,0.,24.0
1979-03-07 19:17:29.710 ,7,1,0.,24.0,0.,24.0
1979-03-07 19:17:53.710 ,6,1,0.,24.0,0.,24.0
1979-03-07 19:18:17.710 ,5,1,0.,24.0,0.,24.0
1979-03-07 19:18:41.710 ,4,1,0.,24.0,0.,24.0
1979-03-07 19:19:05.710 ,3,1,0.,24.0,0.,24.0
1979-03-07 19:19:29.710 ,2,1,0.,24.0,0.,24.0
1979-03-07 19:19:53.710 ,1,1,0.,24.0,0.,24.0
1979-03-07 19:20:17.710 ,0,1,0.,24.0,0.,24.0
1979-03-07 19:20:41.710 ,0,1,0.,24.0,0.,24.0
1979-03-07 19:21:05.710 ,1,1,0.,24.0,0.,24.0
1979-03-07 19:21:29.710 ,2,1,0.,24.0,0.,24.0
1979-03-07 19:21:53.710 ,3,1,0.,24.0,0.,24.0
1979-03-07 19:22:17.710 ,4,1,0.,24.0,0.,24.0
1979-03-07 19:22:41.710 ,5,1,0.,24.0,0.,24.0
1979-03-07 19:23:05.710 ,6,1,0.,24.0,0.,24.0
1979-03-07 19:23:29.710 ,7,1,0.,24.0,0.,24.0
1979-03-07 19:23:53.710 ,7,1,0.,24.0,0.,24.0
1979-03-07 19:24:17.710 ,6,1,0.,24.0,0.,24.0
1979-03-07 19:24:41.710 ,5,1,0.,24.0,0.,24.0
1979-03-07 19:25:05.710 ,4,1,0.,24.0,0.,24.0
1979-03-07 19:25:29.710 ,3,1,0.,24.0,0.,24.0
1979-03-07 19:25:53.710 ,2,1,0.,24.0,0.,24.0
1979-03-07 19:26:17.710 ,1,1,0.,24.0,0.,24.0
1979-03-07 19:26:41.710 ,0,1,0.,24.0,0.,24.0
1979-03-07 19:27:05.710 ,0,1,0.,24.0,0.,24.0
1979-03-07 19:27:29.710 ,1,1,0.,24.0,0.,24.0
1979-03-07 19:27:53.710 ,0,0,,0,,0
1979-03-07 19:27:55.510 ,0,0,,0,,0
1979-03-07 19:27:59.110 ,0,0,,0,,0
1979-03-07 19:31:52.510 ,0,0,,0,,0
1979-03-07 19:31:53.710 ,0,0,,0,,0
1979-03-07 19:31:57.910 ,0,0,,0,,0
1979-03-07 19:32:01.510 ,0,0,0.,24.0,0.,24.0
1979-03-07 19:32:17.710 ,2,1,0.,24.0,0.,24.0
1979-03-07 19:32:41.710 ,1,1,0.,24.0,0.,24.0
1979-03-07 19:33:05.710 ,0,1,0.,24.0,0.,24.0
1979-03-07 19:33:29.710 ,0,1,0.,24.0,0.,24.0
1979-03-07 19:33:53.710 ,1,1,0.,24.0,0.,24.0
1979-03-07 19:34:17.710 ,2,1,0.,24.0,0.,24.0
1979-03-07 19:34:41.710 ,3,1,0.,24.0,0.,24.0
1979-03-07 19:35:05.710 ,4,1,0.,24.0,0.,24.0
1979-03-07 19:35:29.710 ,5,1,0.,24.0,0.,24.0
1979-03-07 19:35:53.710 ,6,1,0.,24.0,0.,24.0
1979-03-07 19:36:17.710 ,7,1,0.,24.0,0.,24.0
1979-03-07 19:36:41.710 ,7,1,0.,24.0,0.,24.0
1979-03-07 19:37:05.710 ,6,1,0.,24.0,0.,24.0
1979-03-07 19:37:29.710 ,5,1,0.,24.0,0.,24.0
1979-03-07 19:37:53.710 ,4,1,0.,24.0,0.,24.0
1979-03-07 19:38:17.710 ,3,1,0.,24.0,0.,24.0
1979-03-07 19:38:41.710 ,2,1,0.,24.0,0.,24.0
1979-03-07 19:39:05.710 ,1,1,0.,24.0,0.,24.0
1979-03-07 19:39:29.710 ,0,1,0.,24.0,0.,24.0
1979-03-07 19:39:53.710 ,0,1,0.,24.0,0.,24.0
1979-03-07 19:40:17.710 ,1,1,0.,24.0,0.,24.0
1979-03-07 19:40:41.710 ,2,1,0.,24.0,0.,24.0
1979-03-07 19:41:05.710 ,3,1,0.,24.0,0.,24.0
1979-03-07 19:41:29.710 ,4,1,0.,24.0,0.,24.0
1979-03-07 19:41:53.710 ,5,1,0.,24.0,0.,24.0
1979-03-07 19:42:17.710 ,6,1,0.,24.0,0.,24.0
1979-03-07 19:42:41.710 ,7,1,0.,24.0,0.,24.0
1979-03-07 19:43:05.710 ,7,1,0.,24.0,0.,24.0
1979-03-07 19:43:29.710 ,6,1,0.,24.0,0.,24.0
1979-03-07 19:43:53.710 ,5,1,0.,24.0,0.,24.0
1979-03-07 19:44:17.710 ,4,1,0.,24.0,0.,24.0
1979-03-07 19:44:41.710 ,3,1,0.,24.0,0.,24.0
1979-03-07 19:45:05.710 ,2,1,0.,24.0,0.,24.0
1979-03-07 19:45:29.710 ,1,1,0.,24.0,0.,24.0
1979-03-07 19:45:53.710 ,0,1,0.,24.0,0.,24.0
1979-03-07 19:46:17.710 ,0,1,0.,24.0,0.,24.0
1979-03-07 19:46:41.710 ,1,1,0.,24.0,0.,24.0
1979-03-07 19:47:05.710 ,2,1,0.,24.0,0.,24.0
1979-03-07 19:47:29.710 ,3,1,0.,24.0,0.,24.0
1979-03-07 19:47:53.710 ,4,1,0.,24.0,0.,24.0
1979-03-07 19:48:17.710 ,5,1,0.,24.0,0.,24.0
1979-03-07 19:48:41.710 ,6,1,0.,24.0,0.,24.0
1979-03-07 19:49:05.710 ,7,1,0.,24.0,0.,24.0
1979-03-07 19:49:29.710 ,7,1,0.,24.0,0.,24.0
1979-03-07 19:49:53.710 ,6,1,0.,24.0,0.,24.0
1979-03-07 19:50:17.710 ,0,0,0.,24.0,0.,24.0
1979-03-07 19:51:20.710 ,0,0,0.,24.0,0.,24.0
1979-03-07 19:51:29.710 ,2,1,0.,24.0,0.,24.0
1979-03-07 19:51:53.710 ,1,1,0.,24.0,0.,24.0
1979-03-07 19:52:17.710 ,0,1,0.,24.0,0.,24.0
1979-03-07 19:52:41.710 ,0,1,0.,24.0,0.,24.0
1979-03-07 19:53:05.710 ,1,1,0.,24.0,0.,24.0
1979-03-07 19:53:29.710 ,2,1,0.,24.0,0.,24.0
1979-03-07 19:53:53.710 ,3,1,0.,24.0,0.,24.0
1979-03-07 19:54:17.710 ,4,1,0.,24.0,0.,24.0
1979-03-07 19:54:41.710 ,5,1,0.,24.0,0.,24.0
1979-03-07 19:55:05.710 ,6,1,0.,24.0,0.,24.0
1979-03-07 19:55:29.710 ,7,1,0.,24.0,0.,24.0
1979-03-07 19:55:53.710 ,7,1,0.,24.0,0.,24.0
1979-03-07 19:56:17.710 ,6,1,0.,24.0,0.,24.0
1979-03-07 19:56:41.710 ,5,1,0.,24.0,0.,24.0
1979-03-07 19:57:05.710 ,4,1,0.,24.0,0.,24.0
1979-03-07 19:57:29.710 ,3,1,0.,24.0,0.,24.0
1979-03-07 19:57:53.720 ,2,1,0.,24.0,0.,24.0
1979-03-07 19:58:17.720 ,1,1,0.,24.0,0.,24.0
1979-03-07 19:58:41.720 ,0,1,0.,24.0,0.,24.0
1979-03-07 19:59:05.720 ,0,1,0.,24.0,0.,24.0
1979-03-07 19:59:29.720 ,1,1,0.,24.0,0.,24.0
1979-03-07 19:59:53.720 ,2,1,0.,24.0,0.,24.0
1979-03-07 20:00:17.720 ,3,1,0.,24.0,0.,24.0
1979-03-07 20:00:41.720 ,4,1,0.,24.0,0.,24.0
1979-03-07 20:01:05.720 ,5,1,0.,24.0,0.,24.0
1979-03-07 20:01:29.720 ,6,1,0.,24.0,0.,24.0
1979-03-07 20:01:53.720 ,7,1,0.,24.0,0.,24.0
1979-03-07 20:02:17.720 ,7,1,0.,24.0,0.,24.0
1979-03-07 20:02:41.720 ,6,1,0.,24.0,0.,24.0
1979-03-07 20:03:05.720 ,5,1,0.,24.0,0.,24.0
1979-03-07 20:03:29.720 ,4,1,0.,24.0,0.,24.0
1979-03-07 20:03:53.720 ,3,1,0.,24.0,0.,24.0
1979-03-07 20:04:17.720 ,2,1,0.,24.0,0.,24.0
1979-03-07 20:04:41.720 ,1,1,1.,24.0,0.,24.0
1979-03-07 20:05:05.720 ,0,1,0.,24.0,0.,24.0
1979-03-07 20:05:29.720 ,0,1,0.,24.0,0.,24.0
1979-03-07 20:05:53.720 ,1,1,1.,24.0,0.,24.0
1979-03-07 20:06:17.720 ,2,1,0.,24.0,0.,24.0
1979-03-07 20:06:41.720 ,3,1,0.,24.0,0.,24.0
1979-03-07 20:07:05.720 ,4,1,0.,24.0,0.,24.0
1979-03-07 20:07:29.720 ,5,1,0.,24.0,0.,24.0
1979-03-07 20:07:53.720 ,6,1,0.,24.0,0.,24.0
1979-03-07 20:08:17.720 ,7,1,0.,24.0,0.,24.0
1979-03-07 20:08:41.720 ,7,1,0.,24.0,0.,24.0
1979-03-07 20:09:05.720 ,6,1,0.,24.0,0.,24.0
1979-03-07 20:09:29.720 ,5,1,0.,24.0,0.,24.0
1979-03-07 20:09:53.720 ,4,1,0.,24.0,0.,24.0
1979-03-07 20:10:17.720 ,3,1,0.,24.0,0.,24.0
1979-03-07 20:10:41.720 ,2,1,0.,24.0,0.,24.0
1979-03-07 20:11:05.720 ,1,1,0.,24.0,0.,24.0
1979-03-07 20:11:29.720 ,0,1,0.,24.0,0.,24.0
1979-03-07 20:11:53.720 ,0,1,0.,24.0,0.,24.0
1979-03-07 20:12:17.720 ,1,1,0.,24.0,0.,24.0
1979-03-07 20:12:41.720 ,2,1,0.,24.0,0.,24.0
1979-03-07 20:13:05.720 ,3,1,0.,24.0,0.,24.0
1979-03-07 20:13:29.720 ,4,1,0.,24.0,0.,24.0
1979-03-07 20:13:53.720 ,5,1,0.,24.0,0.,24.0
1979-03-07 20:14:17.720 ,6,1,0.,24.0,0.,24.0
1979-03-07 20:14:41.720 ,7,1,0.,24.0,0.,24.0
1979-03-07 20:15:05.720 ,7,1,0.,24.0,0.,24.0
1979-03-07 20:15:29.720 ,6,1,0.,24.0,0.,24.0
1979-03-07 20:15:53.720 ,5,1,0.,24.0,0.,24.0
1979-03-07 20:16:17.720 ,4,1,0.,24.0,0.,24.0
1979-03-07 20:16:41.720 ,3,1,0.,24.0,0.,24.0
1979-03-07 20:17:05.720 ,2,1,0.,24.0,0.,24.0
1979-03-07 20:17:29.720 ,1,1,0.,24.0,0.,24.0
1979-03-07 20:17:53.720 ,0,1,0.,24.0,0.,24.0
1979-03-07 20:18:17.720 ,0,1,0.,24.0,0.,24.0
1979-03-07 20:18:41.720 ,1,1,0.,24.0,0.,24.0
1979-03-07 20:19:05.720 ,2,1,0.,24.0,0.,24.0
1979-03-07 20:19:29.720 ,3,1,0.,24.0,0.,24.0
1979-03-07 20:19:53.720 ,4,1,0.,24.0,0.,24.0
1979-03-07 20:20:17.720 ,5,1,0.,24.0,0.,24.0
1979-03-07 20:20:41.720 ,6,1,0.,24.0,0.,24.0
1979-03-07 20:21:05.720 ,7,1,0.,24.0,0.,24.0
1979-03-07 20:21:29.720 ,7,1,0.,24.0,0.,24.0
1979-03-07 20:21:53.720 ,6,1,0.,24.0,0.,24.0
1979-03-07 20:22:17.720 ,5,1,0.,24.0,0.,24.0
1979-03-07 20:22:41.720 ,4,1,0.,24.0,0.,24.0
1979-03-07 20:23:05.720 ,3,1,0.,24.0,0.,24.0
1979-03-07 20:23:29.720 ,2,1,0.,24.0,0.,24.0
1979-03-07 20:23:53.720 ,1,1,0.,24.0,0.,24.0
1979-03-07 20:24:17.720 ,0,1,0.,24.0,0.,24.0
1979-03-07 20:24:41.720 ,0,1,0.,24.0,0.,24.0
1979-03-07 20:25:05.720 ,1,1,0.,24.0,0.,24.0
1979-03-07 20:25:29.720 ,2,1,0.,24.0,0.,24.0
1979-03-07 20:25:53.720 ,3,1,0.,24.0,0.,24.0
1979-03-07 20:26:17.720 ,4,1,0.,24.0,0.,24.0
1979-03-07 20:26:41.720 ,5,1,0.,24.0,0.,24.0
1979-03-07 20:27:05.720 ,6,1,0.,24.0,0.,24.0
1979-03-07 20:28:17.720 ,0,0,0.,24.0,0.,24.0
1979-03-07 20:28:41.720 ,0,0,0.,24.0,0.,24.0
1979-03-07 20:29:05.720 ,4,1,0.,24.0,0.,24.0
1979-03-07 20:29:29.720 ,3,1,0.,24.0,0.,24.0
1979-03-07 20:29:53.720 ,2,1,0.,24.0,0.,24.0
1979-03-07 20:30:17.720 ,1,1,0.,24.0,0.,24.0
1979-03-07 20:30:41.720 ,0,0,0.,24.0,0.,24.0
1979-03-07 20:31:05.720 ,0,0,,0,,0
1979-03-07 20:31:29.720 ,0,0,0.,24.0,0.,24.0
1979-03-07 20:31:53.720 ,0,0,0.,24.0,0.,24.0
1979-03-07 20:32:17.720 ,3,1,0.,24.0,0.,24.0
1979-03-07 20:32:41.720 ,4,1,0.,24.0,0.,24.0
1979-03-07 20:33:05.720 ,5,1,0.,24.0,0.,24.0
1979-03-07 20:33:29.720 ,0,0,,0,,0
1979-03-07 20:34:44.120 ,0,0,0.,24.0,0.,24.0
1979-03-07 20:35:05.720 ,0,0,0.,24.0,0.,24.0
1979-03-07 20:35:32.120 ,0,0,0.,24.0,0.,24.0
1979-03-07 20:35:53.720 ,0,0,,0,,0
1979-03-07 20:36:17.720 ,0,0,,0,,0
1979-03-07 20:36:41.720 ,0,0,0.,24.0,0.,24.0
1979-03-07 20:37:05.720 ,0,1,0.,24.0,0.,24.0
1979-03-07 20:37:29.720 ,0,1,0.,24.0,0.,24.0
1979-03-07 20:37:53.720 ,1,1,0.,24.0,0.,24.0
1979-03-07 20:38:17.720 ,2,1,0.,24.0,0.,24.0
1979-03-07 20:38:41.720 ,3,1,0.,24.0,0.,24.0
1979-03-07 20:39:05.720 ,4,1,0.,24.0,0.,24.0
1979-03-07 20:39:29.720 ,5,1,0.,24.0,0.,24.0
1979-03-07 20:39:53.720 ,6,1,0.,24.0,0.,24.0
1979-03-07 20:40:17.720 ,7,1,0.,24.0,0.,24.0
1979-03-07 20:40:41.720 ,7,1,0.,24.0,0.,24.0
1979-03-07 20:41:05.720 ,6,1,0.,24.0,0.,24.0
1979-03-07 20:41:29.720 ,5,1,0.,24.0,0.,24.0
1979-03-07 20:41:53.720 ,4,1,0.,24.0,0.,24.0
1979-03-07 20:42:17.720 ,3,1,0.,24.0,0.,24.0
1979-03-07 20:42:41.720 ,2,1,0.,24.0,0.,24.0
1979-03-07 20:43:05.720 ,1,1,0.,24.0,0.,24.0
1979-03-07 20:43:29.720 ,0,1,0.,24.0,0.,24.0
1979-03-07 20:43:53.720 ,0,1,0.,24.0,0.,24.0
1979-03-07 20:44:17.720 ,1,1,0.,24.0,0.,24.0
1979-03-07 20:44:41.720 ,2,1,0.,24.0,0.,24.0
1979-03-07 20:45:05.720 ,3,1,0.,24.0,0.,24.0
1979-03-07 20:45:29.720 ,4,1,0.,24.0,0.,24.0
1979-03-07 20:45:53.720 ,5,1,0.,24.0,0.,24.0
1979-03-07 20:46:17.720 ,6,1,0.,24.0,0.,24.0
1979-03-07 20:46:41.720 ,7,1,0.,24.0,0.,24.0
1979-03-07 20:47:05.720 ,7,1,0.,24.0,0.,24.0
1979-03-07 20:47:29.720 ,6,1,0.,24.0,0.,24.0
1979-03-07 20:47:53.720 ,5,1,0.,24.0,0.,24.0
1979-03-07 20:48:17.720 ,4,1,0.,24.0,0.,24.0
1979-03-07 20:48:41.720 ,3,1,0.,24.0,0.,24.0
1979-03-07 20:49:05.720 ,2,1,0.,24.0,0.,24.0
1979-03-07 20:49:29.720 ,1,1,0.,24.0,0.,24.0
1979-03-07 20:49:53.720 ,0,1,0.,24.0,0.,24.0
1979-03-07 20:50:17.720 ,0,1,0.,24.0,0.,24.0
1979-03-07 20:50:41.720 ,1,1,0.,24.0,0.,24.0
1979-03-07 20:51:05.720 ,2,1,0.,24.0,0.,24.0
1979-03-07 20:51:29.720 ,3,1,0.,24.0,0.,24.0
1979-03-07 20:51:53.720 ,4,1,0.,24.0,0.,24.0
1979-03-07 20:52:17.720 ,5,1,0.,24.0,0.,24.0
1979-03-07 20:52:41.720 ,6,1,0.,24.0,0.,24.0
1979-03-07 20:53:05.720 ,7,1,0.,24.0,0.,24.0
1979-03-07 20:53:29.720 ,7,1,0.,24.0,0.,24.0
1979-03-07 20:53:53.720 ,6,1,0.,24.0,0.,24.0
1979-03-07 20:54:17.720 ,5,1,0.,24.0,0.,24.0
1979-03-07 20:54:41.720 ,4,1,0.,24.0,0.,24.0
1979-03-07 20:55:05.720 ,3,1,0.,24.0,0.,24.0
1979-03-07 20:55:29.720 ,2,1,0.,24.0,0.,24.0
1979-03-07 20:55:53.720 ,1,1,0.,24.0,0.,24.0
1979-03-07 20:56:17.720 ,0,1,0.,24.0,0.,24.0
1979-03-07 20:56:41.720 ,0,1,0.,24.0,0.,24.0
1979-03-07 20:57:05.720 ,1,1,0.,24.0,0.,24.0
1979-03-07 20:57:29.720 ,2,1,0.,24.0,0.,24.0
1979-03-07 20:57:53.720 ,3,1,0.,24.0,0.,24.0
1979-03-07 20:58:17.720 ,4,1,0.,24.0,0.,24.0
1979-03-07 20:58:41.720 ,5,1,0.,24.0,0.,24.0
1979-03-07 20:59:05.720 ,6,1,0.,24.0,0.,24.0
1979-03-07 20:59:29.720 ,7,1,0.,24.0,0.,24.0
1979-03-07 20:59:53.720 ,7,1,0.,24.0,0.,24.0
1979-03-07 21:00:17.720 ,6,1,0.,24.0,0.,24.0
